QPF
0.00 0.00 0.00 0.00 0.00 0.00 0.00 0.00 0.00 0.00 0.00 0.00 0.00 0.00 0.00 0.00 0.00 0.00 0.00 0.00 0.00 0.00
0.00 0.00 0.00 0.00 0.00 0.00 0.00 0.00 0.00 0.00 0.00 0.00 0.00 0.00 0.00 0.00 0.00 0.00 0.00 0.00 0.00 0.00
0.00 0.00 0.00 0.00 0.00 0.00 0.00 0.00 0.00 0.00 0.00 0.00 0.00 0.00 0.00 0.00 0.00 0.00 0.00 0.00 0.00 0.00
0.00 0.00 0.00 0.00 0.00 0.00 0.00 0.00 0.00 0.00 0.00 0.00 0.00 0.00 0.00 0.00 0.00 0.00 0.00 0.00 0.00 0.00
0.00 0.00 0.00 0.00 0.00 0.00 0.00 0.00 0.00 0.00 0.00 0.00 0.00 0.00 0.00 0.00 0.00 0.00 0.00 0.00 0.00 0.00
0.00 0.00 0.00 0.00 0.00 0.00 0.00 0.00 0.00 0.00 0.00 0.00 0.00 0.00 0.00 0.00 0.00 0.00 0.00 0.00 0.00 0.00
0.00 0.00 0.00 0.00 0.00 0.00 0.00 0.00 0.00 0.00 0.00 0.00 0.00 0.00 0.00 0.00 0.00 0.00 0.00 0.00 0.00 0.00
0.00 0.00 0.00 0.00 0.00 0.00 0.00 0.00 0.00 0.00 0.00 0.00 0.00 0.00 0.00 0.00 0.00 0.00 0.00 0.00 0.00 0.00
0.00 0.00 0.00 0.00 0.00 0.00 0.00 0.00 0.00 0.00 0.00 0.00 0.00 0.00 0.00 0.00 0.00 0.00 0.00 0.00 0.00 0.00
0.00 0.00 0.00 0.00 0.00 0.00 0.00 0.00 0.00 0.00 0.00 0.00 0.00 0.00 0.00 0.00 0.00 0.00 0.00 0.00 0.00 0.00
0.00 0.00 0.00 0.00 0.00 0.00 0.00 0.00 0.00 0.00 0.00 0.00 0.00 0.00 0.00 0.00 0.00 0.00 0.00 0.00 0.00 0.00
0.00 0.00 0.00 0.00 0.00 0.00 0.00 0.00 0.00 0.00 0.00 0.00 0.00 0.00 0.00 0.00 0.00 0.00 0.00 0.00 0.00 0.00
0.00 0.00 0.00 0.00 0.00 0.00 0.00 0.00 0.00 0.00 0.00 0.00 0.00 0.00 0.00 0.00 0.01 0.03 0.03 0.01 0.00 0.00
0.00 0.00 0.00 0.00 0.00 0.00 0.00 0.00 0.00 0.00 0.00 0.00 0.00 0.00 0.00 0.01 0.04 0.04 0.04 0.01 0.00 0.00
MSLP
1020.42 1020.49 1020.55 1020.65 1020.74 1020.73 1020.65 1020.53 1020.39 1020.38 1020.38 1020.32 1020.26 1020.22 1020.16 1020.07 1019.97 1019.85 1019.80 1019.87 1020.03 1020.16
1019.82 1019.95 1020.01 1020.09 1020.23 1020.27 1020.29 1020.20 1020.13 1020.19 1020.24 1020.22 1020.20 1020.12 1020.09 1020.10 1020.11 1020.06 1020.05 1020.04 1019.97 1019.87
1018.96 1019.06 1019.22 1019.40 1019.48 1019.57 1019.57 1019.61 1019.69 1019.86 1019.92 1019.97 1019.94 1019.91 1019.96 1019.96 1019.92 1019.93 1020.01 1020.12 1020.30 1020.45
1018.39 1018.45 1018.63 1018.83 1018.90 1018.97 1019.04 1019.06 1019.14 1019.19 1019.26 1019.30 1019.38 1019.50 1019.64 1019.73 1019.76 1019.83 1019.83 1019.90 1020.00 1020.11
1017.71 1017.84 1018.09 1018.19 1018.18 1018.33 1018.47 1018.69 1018.86 1019.00 1019.07 1019.05 1019.06 1019.08 1019.09 1019.16 1019.21 1019.44 1019.67 1019.72 1019.88 1020.01
1017.32 1017.43 1017.37 1017.36 1017.46 1017.67 1017.86 1018.06 1018.26 1018.54 1018.74 1018.88 1018.96 1018.99 1018.92 1018.91 1018.94 1018.96 1019.08 1019.16 1019.31 1019.39
1017.01 1016.91 1016.96 1016.96 1016.96 1017.10 1017.29 1017.57 1017.78 1017.92 1018.14 1018.35 1018.53 1018.60 1018.66 1018.64 1018.67 1018.80 1018.99 1019.19 1019.34 1019.51
1016.53 1016.36 1016.38 1016.50 1016.53 1016.61 1016.78 1016.86 1017.09 1017.39 1017.50 1017.66 1017.81 1017.92 1018.05 1018.42 1018.59 1018.79 1018.83 1018.90 1019.02 1019.16
1016.38 1016.10 1016.05 1016.08 1016.15 1016.17 1016.15 1016.22 1016.40 1016.49 1016.59 1016.72 1016.79 1017.03 1017.48 1018.01 1018.43 1018.58 1018.85 1018.98 1019.03 1019.13
1016.39 1016.09 1015.79 1015.66 1015.73 1015.72 1015.70 1015.72 1015.83 1015.84 1015.92 1015.95 1015.89 1016.04 1016.35 1016.89 1017.71 1018.00 1018.11 1018.39 1018.89 1018.98
1016.75 1016.27 1015.88 1015.69 1015.52 1015.40 1015.38 1015.32 1015.28 1015.33 1015.33 1015.53 1015.54 1015.72 1016.03 1016.28 1016.66 1017.41 1017.84 1017.84 1018.04 1018.34
1016.81 1016.36 1016.01 1015.68 1015.33 1015.03 1014.96 1014.86 1014.64 1014.52 1014.63 1014.92 1014.89 1015.02 1015.35 1015.83 1016.51 1017.09 1017.43 1017.74 1017.76 1017.79
1016.81 1016.49 1016.08 1015.62 1015.28 1014.89 1014.71 1014.48 1014.33 1014.23 1014.19 1014.26 1014.37 1014.54 1014.81 1015.20 1015.95 1016.66 1017.27 1017.50 1017.35 1017.36
1016.59 1016.32 1015.82 1015.47 1015.10 1014.84 1014.55 1014.33 1014.21 1014.10 1013.99 1013.97 1013.89 1014.07 1014.39 1014.78 1015.50 1016.10 1016.56 1016.94 1017.07 1017.05
Thickness
5589 5585 5583 5580 5577 5575 5573 5571 5569 5566 5563 5560 5557 5553 5550 5547 5544 5541 5538 5533 5529 5524
5588 5585 5582 5579 5575 5572 5569 5566 5563 5559 5556 5552 5548 5544 5540 5536 5532 5529 5525 5521 5518 5515
5587 5584 5580 5576 5572 5568 5565 5560 5556 5552 5548 5543 5539 5535 5530 5526 5522 5518 5514 5508 5503 5498
5582 5579 5575 5570 5566 5562 5558 5554 5550 5546 5541 5537 5532 5527 5521 5516 5512 5507 5502 5498 5493 5488
5577 5573 5569 5564 5561 5556 5551 5545 5540 5534 5530 5527 5523 5519 5514 5509 5504 5498 5492 5487 5481 5476
5570 5566 5563 5560 5556 5550 5544 5538 5532 5526 5520 5515 5510 5505 5502 5497 5492 5486 5481 5476 5471 5466
5562 5559 5555 5551 5547 5542 5536 5529 5523 5518 5512 5505 5498 5493 5487 5482 5477 5472 5465 5458 5452 5446
5553 5551 5547 5542 5537 5532 5526 5521 5514 5507 5501 5494 5488 5481 5475 5467 5461 5455 5450 5445 5439 5433
5541 5539 5536 5530 5525 5520 5515 5510 5505 5499 5493 5486 5481 5473 5464 5453 5444 5438 5431 5425 5419 5413
5527 5525 5523 5519 5513 5509 5505 5500 5493 5488 5482 5476 5471 5465 5456 5445 5429 5422 5417 5409 5399 5393
5510 5509 5508 5505 5501 5497 5492 5487 5482 5475 5469 5461 5454 5447 5438 5431 5421 5406 5397 5393 5387 5381
5493 5493 5491 5490 5488 5484 5479 5474 5470 5464 5457 5448 5440 5432 5423 5414 5400 5389 5382 5376 5374 5370
5478 5477 5476 5475 5472 5469 5464 5461 5455 5449 5441 5433 5425 5416 5408 5399 5387 5376 5367 5363 5363 5360
5464 5462 5461 5460 5456 5453 5450 5444 5438 5432 5424 5416 5411 5402 5393 5385 5375 5366 5359 5354 5351 5349